DW6047 Weather Reports


time (UTC)temp
C
wind
direction
speed
KPH
gust
KPH
rain 1hr
cm
rain 24hr
cm
rain mn
cm
humidity
%
barometer
mb
20260506201523 17 196 0.0 6.4 0.00 0.00 0.00 18 1007.2
20260506200109 17 233 3.2 8.0 0.00 0.00 0.00 18 1007.2
20260506194608 17 225 1.6 8.0 0.00 0.00 0.00 18 1007.4
20260506193058 17 266 4.8 9.7 0.00 0.00 0.00 18 1007.4
20260506191513 17 243 3.2 9.7 0.00 0.00 0.00 18 1007.5
20260506190022 16 202 3.2 8.0 0.00 0.00 0.00 18 1007.6
20260506184520 16 229 4.8 14.5 0.00 0.00 0.00 18 1007.9
20260506183031 16 229 4.8 11.3 0.00 0.00 0.00 18 1007.9
20260506181553 16 247 4.8 11.3 0.00 0.00 0.00 18 1008.0
20260506180058 16 207 6.4 12.9 0.00 0.00 0.00 18 1008.0
20260506174501 17 225 4.8 8.0 0.00 0.00 0.00 18 1008.0
20260506173006 17 239 3.2 9.7 0.00 0.00 0.00 18 1007.9
20260506171613 16 227 4.8 11.3 0.00 0.00 0.00 18 1008.1
20260506170107 16 239 6.4 12.9 0.00 0.00 0.00 18 1008.4
20260506164518 16 223 3.2 11.3 0.00 0.00 0.00 18 1008.3
20260506163011 16 253 4.8 12.9 0.00 0.00 0.00 18 1008.1
20260506161506 16 227 4.8 11.3 0.00 0.00 0.00 18 1008.0
20260506160017 17 243 3.2 9.7 0.00 0.00 0.00 18 1008.6
20260506154613 17 236 4.8 12.9 0.00 0.00 0.00 18 1009.1
20260506153009 17 216 6.4 12.9 0.00 0.00 0.00 18 1009.3
20260506151516 17 215 4.8 11.3 0.00 0.00 0.00 18 1009.5
20260506150026 17 218 0.0 0.0 0.00 0.00 0.00 18 1009.1
20260506144504 17 229 0.0 1.6 0.00 0.00 0.00 18 1009.3
20260506143013 17 202 0.0 0.0 0.00 0.00 0.00 18 1009.2
20260506141517 16 238 0.0 0.0 0.00 0.00 0.00 18 1009.3
20260506140127 16 252 0.0 0.0 0.00 0.00 0.00 18 1009.3
20260506134600 17 197 0.0 0.0 0.00 0.00 0.00 18 1009.1
20260506133112 16 209 0.0 0.0 0.00 0.00 0.00 18 1009.5
20260506131515 16 192 0.0 0.0 0.00 0.00 0.00 18 1009.4
20260506130020 15 209 0.0 0.0 0.00 0.00 0.00 18 1009.5
20260506124519 16 217 0.0 0.0 0.00 0.00 0.00 18 1009.6
20260506123026 16 279 0.0 0.0 0.00 0.00 0.00 18 1009.5
20260506121609 16 281 0.0 6.4 0.00 0.00 0.00 18 1009.1
20260506120013 16 259 0.0 6.4 0.00 0.00 0.00 18 1009.1
20260506114614 16 227 0.0 3.2 0.00 0.00 0.00 18 1009.1
20260506113003 16 221 0.0 6.4 0.00 0.00 0.00 18 1008.9
20260506111522 16 221 0.0 6.4 0.00 0.00 0.00 18 1009.0
20260506110055 16 223 0.0 1.6 0.00 0.00 0.00 18 1008.9
20260506104514 16 234 0.0 0.0 0.00 0.00 0.00 18 1008.9
20260506103032 16 209 0.0 3.2 0.00 0.00 0.00 18 1008.6
20260506101538 16 252 0.0 6.4 0.00 0.00 0.00 18 1008.7
20260506094559 16 218 3.2 9.7 0.00 0.00 0.00 18 1008.8
20260506093059 16 238 4.8 9.7 0.00 0.00 0.00 18 1008.6
20260506091600 16 221 4.8 8.0 0.00 0.00 0.00 18 1008.5
20260506090051 17 242 4.8 9.7 0.00 0.00 0.00 23 1008.5
20260506084553 17 217 3.2 9.7 0.00 0.00 0.00 29 1008.7
20260506083050 17 248 4.8 9.7 0.00 0.00 0.00 33 1008.8
20260506081545 17 211 4.8 9.7 0.00 0.00 0.00 38 1008.9
20260506073043 17 205 0.0 8.0 0.00 0.00 0.00 51 1008.9
20260506071539 17 217 1.6 8.0 0.00 0.00 0.00 54 1009.1
20260506061532 18 218 3.2 8.0 0.00 0.00 0.00 61 1009.6
20260506044522 18 218 1.6 8.0 0.00 0.00 0.00 68 1010.3
20260506043024 18 218 1.6 4.8 0.00 0.00 0.00 70 1010.2
20260506041519 18 218 3.2 8.0 0.00 0.00 0.00 71 1010.2
20260506040033 19 218 3.2 8.0 0.00 0.00 0.00 71 1010.1
20260506034517 19 218 4.8 8.0 0.00 0.00 0.00 71 1010.1
20260506033017 20 217 4.8 8.0 0.00 0.00 0.00 71 1009.9
20260506031516 20 215 4.8 8.0 0.00 0.00 0.00 70 1009.9
20260506030016 20 215 4.8 8.0 0.00 0.00 0.00 70 1009.9
20260506024516 20 215 3.2 8.0 0.00 0.00 0.00 69 1009.9
20260506023025 21 215 3.2 8.0 0.00 0.00 0.00 68 1010.1
20260506021502 21 215 4.8 8.0 0.00 0.00 0.00 67 1010.1
20260506020115 21 214 4.8 8.0 0.00 0.00 0.00 66 1010.0
20260506014521 22 214 3.2 8.0 0.00 0.00 0.00 64 1009.9
20260506013057 22 198 6.4 9.7 0.00 0.00 0.00 64 1009.8
20260506011510 22 217 1.6 8.0 0.00 0.00 0.00 62 1009.6
20260506010117 22 211 3.2 14.5 0.00 0.00 0.00 61 1009.3
20260506004516 22 225 4.8 11.3 0.00 0.00 0.00 61 1009.3
20260506003004 22 230 3.2 8.0 0.00 0.00 0.00 62 1009.1
20260506001612 23 229 3.2 8.0 0.00 0.00 0.00 61 1009.0
20260506000020 23 235 3.2 9.7 0.00 0.00 0.00 59 1009.0
20260505234508 23 250 3.2 9.7 0.00 0.00 0.00 59 1008.8
20260505233009 23 228 4.8 11.3 0.00 0.00 0.00 58 1008.7
20260505231531 24 219 3.2 9.7 0.00 0.00 0.00 58 1008.7
20260505230028 24 217 0.0 1.6 0.00 0.00 0.00 57 1008.7
20260505224523 25 267 0.0 11.3 0.00 0.00 0.00 54 1008.4
20260505223112 25 250 9.7 20.9 0.00 0.00 0.00 54 1008.4
20260505221602 25 257 6.4 17.7 0.00 0.00 0.00 54 1008.4
20260505220013 25 219 6.4 14.5 0.00 0.00 0.00 55 1008.3
20260505214623 25 230 4.8 14.5 0.00 0.00 0.00 55 1008.5
20260505213113 25 227 4.8 12.9 0.00 0.00 0.00 56 1008.4
20260505211612 25 227 6.4 14.5 0.00 0.00 0.00 55 1008.3
20260505210010 26 200 4.8 19.3 0.00 0.00 0.00 54 1008.3
20260505204528 26 221 8.0 16.1 0.00 0.00 0.00 54 1008.2
20260505203013 26 189 3.2 12.9 0.00 0.00 0.00 54 1008.3